TAM2505 SBSP-SBVT

Flight info

Callsign TAM2505
Flight time 1h 30m
Altitude 39000
Route UREMI UZ42 CXI DCT SEGLI DCT TODET
Aircraft A20N/M-SDE2E3FGHIRWXY/LB1

Departure

Time 2026-04-24 18:55
Airport Congonhas–Deputado Freitas Nobre Airport (SBSP)

Arrival

Time 2026-04-24 20:25
Airport Eurico de Aguiar Salles International Airport (SBVT)
Time Latitude Longitude Altitude Speed Heading
2026-04-24 18:54 -23.70896 -46.59058 6551 ft 280 kts 112°
2026-04-24 18:55 -23.71612 -46.54796 8322 ft 290 kts 94°
2026-04-24 18:55 -23.71788 -46.52585 9267 ft 295 kts 94°
2026-04-24 18:55 -23.71976 -46.50335 10177 ft 300 kts 91°
2026-04-24 18:56 -23.71928 -46.48006 10729 ft 318 kts 82°
2026-04-24 18:56 -23.71572 -46.45537 11005 ft 342 kts 79°
2026-04-24 18:56 -23.71178 -46.42912 11541 ft 355 kts 79°
2026-04-24 18:56 -23.70789 -46.40232 12336 ft 360 kts 80°
2026-04-24 18:57 -23.70401 -46.37512 13135 ft 366 kts 80°
2026-04-24 18:57 -23.70008 -46.34749 13885 ft 371 kts 80°
2026-04-24 18:57 -23.69612 -46.31958 14556 ft 376 kts 80°
2026-04-24 18:57 -23.69208 -46.29113 15228 ft 381 kts 80°
2026-04-24 18:58 -23.68799 -46.26244 15889 ft 385 kts 79°
2026-04-24 18:58 -23.68385 -46.23341 16542 ft 390 kts 79°
2026-04-24 18:58 -23.67965 -46.20400 17183 ft 394 kts 79°
2026-04-24 18:58 -23.67530 -46.17441 17797 ft 399 kts 77°
2026-04-24 18:59 -23.66612 -46.14589 18418 ft 399 kts 59°
2026-04-24 18:59 -23.64987 -46.12155 18909 ft 399 kts 43°
2026-04-24 18:59 -23.62786 -46.10325 19415 ft 399 kts 27°
2026-04-24 18:59 -23.60311 -46.08932 19917 ft 402 kts 23°
2026-04-24 19:00 -23.57772 -46.07616 20434 ft 407 kts 22°
2026-04-24 19:00 -23.55204 -46.06278 20945 ft 411 kts 23°
2026-04-24 19:00 -23.52620 -46.04896 21445 ft 416 kts 24°
2026-04-24 19:00 -23.50017 -46.03475 21880 ft 421 kts 24°
2026-04-24 19:01 -23.47396 -46.02027 22027 ft 422 kts 24°
2026-04-24 19:01 -23.44732 -46.00700 22057 ft 420 kts 17°
2026-04-24 19:01 -23.41938 -45.99841 22059 ft 417 kts
2026-04-24 19:01 -23.39068 -45.99479 22052 ft 414 kts 359°
2026-04-24 19:02 -23.37160 -45.99424 22061 ft 414 kts 359°
2026-04-24 19:02 -23.33311 -45.99299 22060 ft 414 kts 359°
2026-04-24 19:02 -23.30431 -45.99200 22052 ft 414 kts 359°
2026-04-24 19:02 -23.27555 -45.99099 22056 ft 414 kts 359°
2026-04-24 19:03 -23.24671 -45.98997 22085 ft 415 kts 359°
2026-04-24 19:03 -23.21767 -45.98895 22482 ft 419 kts 359°
2026-04-24 19:03 -23.18848 -45.98793 23036 ft 422 kts 359°
2026-04-24 19:03 -23.15900 -45.98690 23495 ft 426 kts 359°
2026-04-24 19:04 -23.12919 -45.98559 23936 ft 431 kts
2026-04-24 19:04 -23.09965 -45.97875 24373 ft 438 kts 17°
2026-04-24 19:04 -23.07197 -45.96440 24789 ft 446 kts 30°
2026-04-24 19:04 -23.04763 -45.94320 25209 ft 453 kts 44°
2026-04-24 19:05 -23.02802 -45.91622 25595 ft 459 kts 57°
2026-04-24 19:05 -23.01425 -45.88493 25982 ft 463 kts 71°
2026-04-24 19:05 -23.00697 -45.85081 26351 ft 467 kts 84°
2026-04-24 19:05 -23.00658 -45.81556 26712 ft 469 kts 97°
2026-04-24 19:06 -23.01310 -45.78088 27064 ft 470 kts 110°
2026-04-24 19:06 -23.02617 -45.74848 27395 ft 469 kts 123°
2026-04-24 19:06 -23.04514 -45.71983 27746 ft 467 kts 135°
2026-04-24 19:06 -23.06911 -45.69616 28078 ft 465 kts 148°
2026-04-24 19:07 -23.09687 -45.67859 28411 ft 461 kts 160°
2026-04-24 19:07 -23.12714 -45.66784 28761 ft 456 kts 173°
2026-04-24 19:07 -23.14784 -45.66385 28985 ft 457 kts 174°
2026-04-24 19:07 -23.18937 -45.65234 29429 ft 466 kts 164°
2026-04-24 19:08 -23.21917 -45.63783 29762 ft 474 kts 156°
2026-04-24 19:08 -23.24783 -45.61965 30069 ft 479 kts 152°
2026-04-24 19:08 -23.27572 -45.59957 30404 ft 482 kts 149°
2026-04-24 19:08 -23.30326 -45.57864 30744 ft 485 kts 147°
2026-04-24 19:09 -23.32833 -45.55381 31065 ft 493 kts 135°
2026-04-24 19:09 -23.34878 -45.52365 31444 ft 498 kts 123°
2026-04-24 19:09 -23.36358 -45.48945 31882 ft 502 kts 111°
2026-04-24 19:09 -23.37212 -45.45257 32328 ft 504 kts 100°
2026-04-24 19:10 -23.37405 -45.41446 32757 ft 506 kts 88°
2026-04-24 19:10 -23.36928 -45.37663 33160 ft 506 kts 77°
2026-04-24 19:10 -23.36280 -45.35189 33416 ft 507 kts 72°
2026-04-24 19:10 -23.35175 -45.31551 33819 ft 506 kts 72°
2026-04-24 19:11 -23.34143 -45.27950 34202 ft 505 kts 74°
2026-04-24 19:11 -23.33192 -45.24227 34541 ft 504 kts 76°
2026-04-24 19:11 -23.32350 -45.20602 34867 ft 502 kts 77°
2026-04-24 19:11 -23.31524 -45.16851 35186 ft 502 kts 77°
2026-04-24 19:12 -23.30727 -45.13151 35506 ft 501 kts 78°
2026-04-24 19:12 -23.29939 -45.09472 35827 ft 500 kts 78°
2026-04-24 19:12 -23.29149 -45.05793 36134 ft 499 kts 78°
2026-04-24 19:12 -23.28366 -45.02161 36416 ft 499 kts 78°
2026-04-24 19:13 -23.27831 -44.99683 36616 ft 499 kts 77°
2026-04-24 19:13 -23.26780 -44.94824 37027 ft 498 kts 77°
2026-04-24 19:13 -23.25986 -44.91164 37253 ft 498 kts 77°
2026-04-24 19:13 -23.25192 -44.87505 37574 ft 497 kts 77°
2026-04-24 19:14 -23.24398 -44.83852 37848 ft 497 kts 77°
2026-04-24 19:14 -23.23601 -44.80194 38040 ft 498 kts 77°
2026-04-24 19:14 -23.22803 -44.76531 38279 ft 497 kts 77°
2026-04-24 19:14 -23.22007 -44.72884 38605 ft 495 kts 77°
2026-04-24 19:15 -23.21213 -44.69247 38821 ft 494 kts 77°
2026-04-24 19:15 -23.20420 -44.65619 39017 ft 494 kts 77°
2026-04-24 19:15 -23.19626 -44.61991 39074 ft 493 kts 77°
2026-04-24 19:16 -23.17247 -44.51148 39067 ft 491 kts 77°
2026-04-24 19:16 -23.15658 -44.43927 39066 ft 491 kts 77°
2026-04-24 19:17 -23.14065 -44.36704 39065 ft 491 kts 77°
2026-04-24 19:17 -23.12469 -44.29483 39062 ft 491 kts 77°
2026-04-24 19:18 -23.10868 -44.22259 39059 ft 491 kts 77°
2026-04-24 19:18 -23.09266 -44.15045 39062 ft 491 kts 77°
2026-04-24 19:19 -23.07660 -44.07832 39060 ft 491 kts 77°
2026-04-24 19:19 -23.06051 -44.00624 39049 ft 491 kts 77°
2026-04-24 19:20 -23.04439 -43.93416 39042 ft 491 kts 77°
2026-04-24 19:20 -23.02826 -43.86216 39028 ft 491 kts 77°
2026-04-24 19:21 -23.01209 -43.79020 39020 ft 491 kts 77°
2026-04-24 19:21 -22.99537 -43.71830 39019 ft 491 kts 73°
2026-04-24 19:22 -22.97524 -43.66073 39018 ft 492 kts 67°
2026-04-24 19:22 -22.94827 -43.59252 39026 ft 492 kts 67°
2026-04-24 19:23 -22.92140 -43.52416 39030 ft 492 kts 67°
2026-04-24 19:23 -22.89013 -43.44482 39021 ft 493 kts 67°
2026-04-24 19:24 -22.86751 -43.38754 39023 ft 493 kts 67°
2026-04-24 19:24 -22.84050 -43.31924 39026 ft 493 kts 67°
2026-04-24 19:25 -22.81144 -43.25206 39022 ft 493 kts 60°
2026-04-24 19:25 -22.77435 -43.18964 39025 ft 492 kts 56°
2026-04-24 19:26 -22.73669 -43.12771 39032 ft 492 kts 56°
2026-04-24 19:26 -22.69910 -43.06584 39045 ft 492 kts 56°
2026-04-24 19:27 -22.66145 -43.00397 39054 ft 492 kts 56°
2026-04-24 19:27 -22.62404 -42.94260 39071 ft 492 kts 56°
2026-04-24 19:28 -22.58636 -42.88085 39077 ft 491 kts 56°
2026-04-24 19:28 -22.54870 -42.81920 39077 ft 491 kts 56°
2026-04-24 19:29 -22.49191 -42.72636 39083 ft 491 kts 56°
2026-04-24 19:30 -22.45445 -42.66523 39086 ft 491 kts 56°
2026-04-24 19:30 -22.41678 -42.60382 39086 ft 490 kts 56°
2026-04-24 19:31 -22.37906 -42.54239 39086 ft 490 kts 56°
2026-04-24 19:31 -22.34134 -42.48105 39094 ft 490 kts 56°
2026-04-24 19:32 -22.30354 -42.41964 39092 ft 490 kts 56°
2026-04-24 19:32 -22.26308 -42.36039 39088 ft 491 kts 52°
2026-04-24 19:33 -22.22183 -42.30174 39088 ft 491 kts 52°
2026-04-24 19:33 -22.18056 -42.24310 39093 ft 491 kts 52°
2026-04-24 19:34 -22.13923 -42.18446 39090 ft 491 kts 52°
2026-04-24 19:34 -22.09792 -42.12591 39089 ft 491 kts 52°
2026-04-24 19:35 -22.05652 -42.06730 39089 ft 491 kts 52°
2026-04-24 19:35 -22.01518 -42.00885 39080 ft 490 kts 52°
2026-04-24 19:36 -21.97384 -41.95045 39075 ft 490 kts 52°
2026-04-24 19:36 -21.93254 -41.89219 39070 ft 489 kts 52°
2026-04-24 19:37 -21.89122 -41.83396 39066 ft 488 kts 52°
2026-04-24 19:37 -21.85001 -41.77594 39062 ft 488 kts 52°
2026-04-24 19:38 -21.81401 -41.72528 39069 ft 489 kts 52°
2026-04-24 19:38 -21.77264 -41.66715 39066 ft 490 kts 52°
2026-04-24 19:39 -21.73124 -41.60904 39058 ft 488 kts 52°
2026-04-24 19:39 -21.68991 -41.55108 39056 ft 489 kts 52°
2026-04-24 19:40 -21.64856 -41.49317 39053 ft 488 kts 52°
2026-04-24 19:40 -21.60725 -41.43537 39047 ft 487 kts 52°
2026-04-24 19:41 -21.56595 -41.37765 39046 ft 487 kts 52°
2026-04-24 19:41 -21.52468 -41.32002 39045 ft 486 kts 52°
2026-04-24 19:42 -21.48344 -41.26252 39048 ft 486 kts 52°
2026-04-24 19:42 -21.44233 -41.20558 39051 ft 486 kts 52°
2026-04-24 19:43 -21.40088 -41.14828 39059 ft 486 kts 52°
2026-04-24 19:43 -21.35940 -41.09105 39061 ft 486 kts 52°
2026-04-24 19:44 -21.31789 -41.03385 39066 ft 486 kts 52°
2026-04-24 19:44 -21.27165 -40.98150 39066 ft 484 kts 34°
2026-04-24 19:44 -21.24273 -40.96333 39062 ft 481 kts 21°
2026-04-24 19:45 -21.21136 -40.95110 39061 ft 479 kts 15°
2026-04-24 19:45 -21.14784 -40.92944 39065 ft 479 kts 15°
2026-04-24 19:46 -21.08455 -40.90747 39073 ft 470 kts 16°
2026-04-24 19:46 -21.05413 -40.89663 39072 ft 454 kts 19°
2026-04-24 19:46 -21.02643 -40.88164 39075 ft 441 kts 34°
2026-04-24 19:46 -21.00336 -40.86012 39082 ft 443 kts 50°
2026-04-24 19:47 -20.98587 -40.83303 39083 ft 445 kts 65°
2026-04-24 19:47 -20.97505 -40.80214 39085 ft 445 kts 80°
2026-04-24 19:47 -20.97153 -40.76946 39085 ft 442 kts 95°
2026-04-24 19:47 -20.97543 -40.73706 39082 ft 436 kts 110°
2026-04-24 19:48 -20.98637 -40.70728 39081 ft 427 kts 124°
2026-04-24 19:48 -21.00349 -40.68176 39084 ft 419 kts 137°
2026-04-24 19:48 -21.04707 -40.64187 39081 ft 407 kts 158°
2026-04-24 19:49 -21.10057 -40.62668 39081 ft 396 kts 179°
2026-04-24 19:49 -21.15530 -40.62584 39081 ft 392 kts 185°
2026-04-24 19:50 -21.26368 -40.62977 39073 ft 388 kts 189°
2026-04-24 19:51 -21.31461 -40.64574 39075 ft 381 kts 211°
2026-04-24 19:51 -21.33648 -40.66153 39075 ft 379 kts 221°
2026-04-24 19:52 -21.36899 -40.70552 39075 ft 380 kts 243°
2026-04-24 19:52 -21.37838 -40.73210 39076 ft 383 kts 254°
2026-04-24 19:52 -21.38252 -40.76037 39078 ft 387 kts 265°
2026-04-24 19:52 -21.38111 -40.78929 39076 ft 392 kts 276°
2026-04-24 19:53 -21.37397 -40.81773 39063 ft 399 kts 288°
2026-04-24 19:53 -21.36119 -40.84440 38879 ft 407 kts 300°
2026-04-24 19:53 -21.31987 -40.88654 38362 ft 418 kts 326°
2026-04-24 19:54 -21.29326 -40.89942 38093 ft 423 kts 339°
2026-04-24 19:54 -21.26468 -40.90558 37834 ft 428 kts 353°
2026-04-24 19:54 -21.23484 -40.90553 37577 ft 429 kts 358°
2026-04-24 19:54 -21.20505 -40.90463 37318 ft 427 kts 358°
2026-04-24 19:55 -21.18504 -40.90409 37142 ft 425 kts 358°
2026-04-24 19:55 -21.14607 -40.90303 36801 ft 421 kts 358°
2026-04-24 19:55 -21.11695 -40.90222 36550 ft 418 kts 358°
2026-04-24 19:55 -21.08790 -40.90140 36319 ft 417 kts 358°
2026-04-24 19:56 -21.05897 -40.90029 36071 ft 416 kts
2026-04-24 19:56 -21.03085 -40.89329 35823 ft 417 kts 20°
2026-04-24 19:56 -21.00549 -40.87828 35597 ft 418 kts 38°
2026-04-24 19:56 -20.98494 -40.85636 35359 ft 418 kts 55°
2026-04-24 19:57 -20.97083 -40.82937 35129 ft 414 kts 72°
2026-04-24 19:57 -20.96417 -40.79978 34899 ft 407 kts 88°
2026-04-24 19:57 -20.96507 -40.76987 34668 ft 400 kts 104°
2026-04-24 19:57 -20.97306 -40.74179 34446 ft 392 kts 120°
2026-04-24 19:58 -20.98722 -40.71727 34219 ft 384 kts 135°
2026-04-24 19:58 -21.00621 -40.69779 33982 ft 374 kts 149°
2026-04-24 19:58 -21.02847 -40.68424 33727 ft 365 kts 163°
2026-04-24 19:58 -21.05263 -40.67691 33473 ft 358 kts 176°
2026-04-24 19:59 -21.07720 -40.67573 33224 ft 352 kts 186°
2026-04-24 19:59 -21.10167 -40.67656 32973 ft 350 kts 186°
2026-04-24 19:59 -21.12588 -40.67728 32721 ft 347 kts 186°
2026-04-24 19:59 -21.14999 -40.67795 32471 ft 345 kts 186°
2026-04-24 20:00 -21.17398 -40.67863 32231 ft 344 kts 186°
2026-04-24 20:00 -21.19755 -40.67929 31992 ft 342 kts 186°
2026-04-24 20:00 -21.22130 -40.67995 31750 ft 340 kts 186°
2026-04-24 20:00 -21.24490 -40.68067 31514 ft 339 kts 188°
2026-04-24 20:01 -21.26787 -40.68465 31280 ft 332 kts 200°
2026-04-24 20:01 -21.28921 -40.69330 31039 ft 325 kts 211°
2026-04-24 20:01 -21.30823 -40.70657 30807 ft 320 kts 223°
2026-04-24 20:01 -21.32355 -40.72325 30583 ft 317 kts 233°
2026-04-24 20:02 -21.33195 -40.73640 30426 ft 316 kts 241°
2026-04-24 20:02 -21.34298 -40.76529 30120 ft 313 kts 256°
2026-04-24 20:02 -21.34611 -40.78802 29856 ft 313 kts 266°
2026-04-24 20:02 -21.34482 -40.81135 29592 ft 315 kts 277°
2026-04-24 20:03 -21.33899 -40.83416 29328 ft 320 kts 288°
2026-04-24 20:03 -21.32869 -40.85541 29060 ft 324 kts 300°
2026-04-24 20:03 -21.31425 -40.87404 28804 ft 328 kts 311°
2026-04-24 20:03 -21.29605 -40.88919 28548 ft 335 kts 324°
2026-04-24 20:04 -21.27483 -40.89987 28299 ft 341 kts 337°
2026-04-24 20:04 -21.25151 -40.90528 28047 ft 346 kts 351°
2026-04-24 20:04 -21.22735 -40.90538 27802 ft 348 kts 358°
2026-04-24 20:04 -21.20311 -40.90459 27556 ft 347 kts 357°
2026-04-24 20:05 -21.17901 -40.90394 27306 ft 346 kts 357°
2026-04-24 20:05 -21.15506 -40.90330 27066 ft 343 kts 357°
2026-04-24 20:05 -21.13127 -40.90266 26823 ft 342 kts 358°
2026-04-24 20:05 -21.10754 -40.90201 26584 ft 341 kts 358°
2026-04-24 20:06 -21.08382 -40.90135 26339 ft 340 kts 358°
2026-04-24 20:06 -21.06024 -40.90069 26117 ft 338 kts 358°
2026-04-24 20:06 -21.03681 -40.90003 25882 ft 336 kts 358°
2026-04-24 20:06 -21.01345 -40.89933 25644 ft 336 kts 360°
2026-04-24 20:07 -20.99777 -40.89675 25505 ft 355 kts 15°
2026-04-24 20:07 -20.96770 -40.87864 25223 ft 392 kts 42°
2026-04-24 20:07 -20.94887 -40.85695 25014 ft 417 kts 51°
2026-04-24 20:07 -20.93045 -40.83185 24793 ft 441 kts 53°
2026-04-24 20:08 -20.91120 -40.80556 24489 ft 453 kts 52°
2026-04-24 20:08 -20.89133 -40.77943 24203 ft 453 kts 51°
2026-04-24 20:08 -20.87107 -40.75359 23589 ft 455 kts 50°
2026-04-24 20:08 -20.85748 -40.73655 23003 ft 456 kts 50°
2026-04-24 20:09 -20.83680 -40.71083 22233 ft 455 kts 49°
2026-04-24 20:09 -20.80638 -40.68065 21396 ft 447 kts 36°
2026-04-24 20:09 -20.78892 -40.66837 21004 ft 443 kts 30°
2026-04-24 20:09 -20.76140 -40.65423 20399 ft 436 kts 22°
2026-04-24 20:10 -20.72454 -40.63819 19618 ft 429 kts 22°
2026-04-24 20:10 -20.69712 -40.62615 19008 ft 424 kts 22°
2026-04-24 20:10 -20.67880 -40.61809 18659 ft 419 kts 22°
2026-04-24 20:10 -20.64351 -40.60255 17873 ft 410 kts 22°
2026-04-24 20:11 -20.61726 -40.59099 17197 ft 406 kts 22°
2026-04-24 20:11 -20.59970 -40.58326 16755 ft 402 kts 22°
2026-04-24 20:11 -20.57432 -40.57209 16120 ft 398 kts 22°
2026-04-24 20:11 -20.54888 -40.56091 15484 ft 393 kts 22°
2026-04-24 20:12 -20.52339 -40.54970 14873 ft 389 kts 22°
2026-04-24 20:12 -20.49981 -40.53935 14300 ft 385 kts 22°
2026-04-24 20:12 -20.47489 -40.52840 13694 ft 381 kts 22°
2026-04-24 20:12 -20.45048 -40.51768 13010 ft 378 kts 21°
2026-04-24 20:13 -20.42630 -40.50706 12402 ft 374 kts 21°
2026-04-24 20:13 -20.40269 -40.49670 12162 ft 359 kts 21°
2026-04-24 20:13 -20.38015 -40.48681 12089 ft 341 kts 21°
2026-04-24 20:13 -20.35879 -40.47752 12078 ft 322 kts 19°
2026-04-24 20:14 -20.33776 -40.47103 11968 ft 307 kts 11°
2026-04-24 20:14 -20.31736 -40.46607 11856 ft 295 kts 11°
2026-04-24 20:14 -20.29780 -40.46123 11756 ft 283 kts 12°
2026-04-24 20:14 -20.27904 -40.45655 11655 ft 271 kts 12°
2026-04-24 20:15 -20.26108 -40.45205 11564 ft 259 kts 12°
2026-04-24 20:15 -20.24394 -40.44776 11473 ft 248 kts 11°
2026-04-24 20:15 -20.22743 -40.44364 11276 ft 242 kts 11°
2026-04-24 20:15 -20.21110 -40.43957 10985 ft 241 kts 11°
2026-04-24 20:16 -20.19474 -40.43550 10676 ft 241 kts 11°
2026-04-24 20:16 -20.17847 -40.43146 10401 ft 239 kts 11°
2026-04-24 20:16 -20.16236 -40.42745 10001 ft 238 kts 11°
2026-04-24 20:16 -20.14623 -40.42343 9537 ft 237 kts 11°
2026-04-24 20:17 -20.13021 -40.41944 9103 ft 236 kts 11°
2026-04-24 20:17 -20.09936 -40.40863 8235 ft 237 kts 38°
2026-04-24 20:17 -20.08963 -40.39466 7773 ft 238 kts 68°
2026-04-24 20:18 -20.08597 -40.38365 7497 ft 238 kts 72°
2026-04-24 20:18 -20.07980 -40.36111 7016 ft 235 kts 74°
2026-04-24 20:18 -20.07531 -40.34448 6649 ft 233 kts 73°
2026-04-24 20:18 -20.07066 -40.32803 6284 ft 231 kts 73°
2026-04-24 20:19 -20.06591 -40.31188 5942 ft 228 kts 73°
2026-04-24 20:19 -20.06109 -40.29584 5691 ft 227 kts 73°
2026-04-24 20:19 -20.05842 -40.27953 5434 ft 223 kts 97°
2026-04-24 20:19 -20.06355 -40.26439 5059 ft 219 kts 122°
2026-04-24 20:20 -20.07168 -40.25070 4822 ft 217 kts 124°
2026-04-24 20:20 -20.07982 -40.23760 4671 ft 209 kts 124°
2026-04-24 20:20 -20.08781 -40.22460 4325 ft 211 kts 124°
2026-04-24 20:20 -20.09579 -40.21138 3857 ft 214 kts 123°
2026-04-24 20:21 -20.10568 -40.19976 3475 ft 208 kts 151°
2026-04-24 20:21 -20.11862 -40.19639 3175 ft 192 kts 186°
2026-04-24 20:21 -20.13069 -40.20175 2739 ft 190 kts 213°
2026-04-24 20:21 -20.14154 -40.20968 2300 ft 188 kts 212°
2026-04-24 20:22 -20.15226 -40.21724 2049 ft 182 kts 210°
2026-04-24 20:22 -20.16263 -40.22427 2004 ft 166 kts 210°
2026-04-24 20:22 -20.17171 -40.23030 1985 ft 141 kts 209°
2026-04-24 20:22 -20.18013 -40.23593 1944 ft 147 kts 212°
2026-04-24 20:23 -20.18834 -40.24218 1796 ft 144 kts 213°
2026-04-24 20:23 -20.19568 -40.24940 1672 ft 145 kts 230°
2026-04-24 20:23 -20.20090 -40.25829 1576 ft 139 kts 239°
2026-04-24 20:23 -20.20502 -40.26770 1463 ft 141 kts 238°
2026-04-24 20:24 -20.21130 -40.27557 1233 ft 140 kts 217°
2026-04-24 20:24 -20.21947 -40.28039 942 ft 133 kts 198°
2026-04-24 20:24 -20.22833 -40.28243 674 ft 129 kts 183°
2026-04-24 20:24 -20.23741 -40.28254 413 ft 132 kts 173°
2026-04-24 20:25 -20.24636 -40.28136 127 ft 127 kts 170°
2026-04-24 20:25 -20.25476 -40.28010 24 ft 106 kts 172°
2026-04-24 20:25 -20.25925 -40.27945 23 ft 38 kts 172°
2026-04-24 20:25 -20.26186 -40.27909 20 ft 37 kts 173°
2026-04-24 20:26 -20.26352 -40.27886 19 ft 28 kts 172°
2026-04-24 20:26 -20.26520 -40.27877 18 ft 24 kts 189°
2026-04-24 20:26 -20.26600 -40.27916 20 ft 11 kts 238°
2026-04-24 20:26 -20.26611 -40.27989 22 ft 11 kts 266°
2026-04-24 20:27 -20.26553 -40.28032 23 ft 13 kts 351°
2026-04-24 20:27 -20.26450 -40.28046 21 ft 17 kts 353°
2026-04-24 20:27 -20.26377 -40.28064 22 ft 7 kts 315°
2026-04-24 20:27 -20.26386 -40.28089 21 ft 4 kts 214°
2026-04-24 20:28 -20.26415 -40.28123 21 ft 8 kts 244°
2026-04-24 20:28 -20.26422 -40.28176 20 ft 5 kts 263°
2026-04-24 20:28 -20.26423 -40.28186 20 ft 0 kts 263°